Find Jilin-1 GaoFen 06A 25 xing

NORAD ID: 57036 Int'l Des: NNA 2023-085 Owner: CGSTL Country: CN Constellation: jilin-1 operational
LEOCIRCULARRETROGRADESSO

实时位置

正在加载3D地球...

关于 Jilin-1 GaoFen 06A 25 xing

正在加载描述...

即将过境

Passes for default location (London). Set your location on the main map for personalized predictions.

高度历史

Loading altitude history...

两行轨道根数

1 57036U 23085AJ 26132.23996381 .00004975 00000-0 21492-3 0 9990
2 57036 97.4839 238.0947 0007470 191.6657 168.4408 15.22931098160861
Epoch: May 12, 2026 • Age: 6 hours

当前状态

高度 505.4 km
速度 7.61 km/s
星下点 27.26°N, 178.58°W
发射日期 Jun 15, 2023
运行时间 2.9 years
类型 earth observation

技术详情

分类 Payload
质量 42.00 kg
干质量 42.00 kg
总质量 42.00 kg
长度 1.50 m
直径 1.00 m
跨度 1.50 m
形状 Box
制造商 CGSTL
平台类型 JL-1
阶段状态 In Orbit
所有者/国家 CGSTL/CN

Most Searched